| Date | Time | Temp. (oF) | Dew Point (oF) | Rel. Hum. (%) | Press. (in.) | Wind Dir. | Wind Speed (mph) | Hourly Rainfall (in.) |
|
|---|---|---|---|---|---|---|---|---|---|
| 1 | 12/01 | 00:00 | 64 | 60 | 89 | 29.94 | SSW | 5 | 0.00 |
| 2 | 11/30 | 23:00 | 65 | 61 | 87 | 29.94 | S | 5 | 0.00 |
| 3 | 11/30 | 22:00 | 65 | 61 | 87 | 29.93 | SSE | 5 | 0.00 |
| 4 | 11/30 | 21:00 | 65 | 61 | 88 | 29.93 | S | 7 | 0.00 |
| 5 | 11/30 | 20:00 | 65 | 61 | 90 | 29.93 | SSW | 4 | 0.00 |
| 6 | 11/30 | 19:00 | 65 | 61 | 90 | 29.92 | SSW | 5 | 0.00 |
| 7 | 11/30 | 18:00 | 66 | 62 | 88 | 29.90 | S | 9 | 0.00 |
| 8 | 11/30 | 17:00 | 65 | 62 | 91 | 29.88 | S | 10 | 0.00 |
| 9 | 11/30 | 16:00 | 65 | 62 | 92 | 29.89 | SSE | 13 | 0.00 |
| 10 | 11/30 | 15:00 | 65 | 63 | 94 | 29.90 | S | 11 | 0.00 |
| 11 | 11/30 | 14:00 | 65 | 63 | 96 | 29.92 | S | 13 | 0.00 |
| 12 | 11/30 | 13:00 | 64 | 63 | 99 | 29.94 | SSW | 13 | 0.00 |
| 13 | 11/30 | 12:00 | 64 | 63 | 99 | 29.99 | SSE | 6 | 0.01 |
| 14 | 11/30 | 11:00 | 65 | 63 | 95 | 30.02 | ESE | 5 | 0.00 |
| 15 | 11/30 | 10:00 | 64 | 62 | 95 | 30.06 | S | 7 | 0.00 |
| 16 | 11/30 | 09:00 | 65 | 63 | 94 | 30.04 | S | 8 | 0.00 |
| 17 | 11/30 | 08:00 | 63 | 62 | 99 | 30.04 | S | 8 | 0.00 |
| 18 | 11/30 | 07:00 | 63 | 63 | 100 | 30.05 | S | 5 | 0.00 |
| 19 | 11/30 | 06:00 | 62 | 62 | 100 | 30.04 | SE | 8 | 0.00 |
| 20 | 11/30 | 05:00 | 62 | 62 | 100 | 30.06 | SSE | 9 | 0.00 |
| 21 | 11/30 | 04:00 | 62 | 62 | 100 | 30.06 | S | 8 | 0.00 |
| 22 | 11/30 | 03:00 | 62 | 62 | 100 | 30.07 | S | 6 | 0.00 |
| 23 | 11/30 | 02:00 | 61 | 60 | 100 | 30.07 | SSE | 7 | 0.00 |
| 24 | 11/30 | 01:00 | 60 | 59 | 100 | 30.09 | S | 3 | 0.00 |